Tracking 30995 objects as of 6-Jul-2025
HD Live streaming from Space Station
objects crossing your sky now

SCD 2

Track SCD 2 now!
10-day predictions
SCD 2 is classified as:


NORAD ID: 25504
Int'l Code: 1998-060A
Perigee: 736.1 km
Apogee: 760.2 km
Inclination: 25.0 °
Period: 99.6 minutes
Semi major axis: 7119 km
RCS: 0.4871 m2 (medium)
Launch date: October 23, 1998
Source: Brazil (BRAZ)
Launch site: Pegasus launched from Eastern Range Air Space (ERAS)
Your satellite tracking list
Your tracking list is empty




NASA's NSSDC Master Catalog

Two Line Element Set (TLE):
1 25504U 98060A   25186.92518554  .00000370  00000-0  52873-4 0  9999
2 25504  24.9961  47.2048 0016986  64.9721  65.9311 14.45308347410170
Source of the keplerian elements: AFSPC